SV1EML-13 Weather Reports


time (UTC)temp
C
wind
direction
speed
KPH
gust
KPH
rain 1hr
cm
rain 24hr
cm
rain mn
cm
humidity
%
barometer
mb
20260508085307 21 0.0 0.0 0.00 0.00 0.00 10 1019.6
20260508080805 20 0.0 0.0 0.00 0.00 0.00 10 1019.5
20260508072307 20 0.0 0.0 0.00 0.00 0.00 10 1020.2
20260508063806 20 0.0 0.0 0.00 0.00 0.00 10 1020.3
20260508055306 20 0.0 0.0 0.00 0.00 0.00 81 1019.3
20260508050805 19 0.0 0.0 0.00 0.00 0.00 97 1018.2
20260508042307 19 0.0 0.0 0.00 0.00 0.00 10 1017.9
20260508033805 18 0.0 0.0 0.00 0.00 0.00 10 1017.2
20260508025306 19 0.0 0.0 0.00 0.00 0.00 10 1017.0
20260508020805 19 0.0 0.0 0.00 0.00 0.00 10 1017.3
20260508012307 19 0.0 0.0 0.00 0.00 0.00 10 1017.6
20260508003805 19 0.0 0.0 0.00 0.00 0.00 10 1018.0
20260507235307 19 0.0 0.0 0.00 0.00 0.00 10 1018.1
20260507230805 19 0.0 0.0 0.00 0.00 0.00 10 1018.6
20260507222306 19 0.0 0.0 0.00 0.00 0.00 10 1019.0
20260507213805 19 0.0 0.0 0.00 0.00 0.00 10 1019.3
20260507205307 20 0.0 0.0 0.00 0.00 0.00 96 1019.4
20260507200805 20 0.0 0.0 0.00 0.00 0.00 68 1019.2
20260507192306 20 0.0 0.0 0.00 0.00 0.00 70 1019.0
20260507183805 20 0.0 0.0 0.00 0.00 0.00 80 1018.9
20260507175307 20 0.0 0.0 0.00 0.00 0.00 79 1018.7
20260507170805 21 0.0 0.0 0.00 0.00 0.00 70 1018.6
20260507162307 21 0.0 0.0 0.00 0.00 0.00 63 1018.2
20260507153805 22 0.0 0.0 0.00 0.00 0.00 69 1018.3
20260507145307 22 0.0 0.0 0.00 0.00 0.00 64 1018.5
20260507140805 22 0.0 0.0 0.00 0.00 0.00 48 1018.6
20260507132307 23 0.0 0.0 0.00 0.00 0.00 53 1018.1
20260507123805 22 0.0 0.0 0.00 0.00 0.00 84 1018.6
20260507115307 23 0.0 0.0 0.00 0.00 0.00 98 1018.8
20260507110805 22 0.0 0.0 0.00 0.00 0.00 10 1019.2
20260507102307 22 0.0 0.0 0.00 0.00 0.00 10 1018.6
20260507093805 22 0.0 0.0 0.00 0.00 0.00 10 1018.7